Content
SEND FEEDBACK

Daily
Averages
Monthly
Summary
United States of America

WURTSBORO, NEW YORK


Home > North America > United States > New York
Elevation: 1300 feet     Latitude: 41 32N     Longitude: 074 29W

WEATHER
 
SELECT A DAY
Number of Records: 184,923;   Date Range: 12/17/97 - 10/20/14
 
SHARE

PRINT THIS DATA

[ ← Previous Day ]
WEATHER ALMANAC - AUGUST 27, 2014
[ Next Day → ]
[ °C ]   °F
Weather ElementAverageHighLow
Temperature75.8 °F90 °F (1:54 pm)62.1 °F (6:54 pm)
Dewpoint65.4 °F69.1 °F (11:54 am)60.1 °F (9:54 am)
Humidity72.7 %93 % (11:54 pm)48 % (5:54 pm)
Barometer29.96 in30.05 in (12:54 am)29.86 in (7:54 am)
Wind Speed6.5 mph12.7 mph (12:54 pm)
Wind Gust18.4 mph (5:54 pm)
Weather ElementAverage
Visibility9.8 mi
Wind DirectionSSW (195.5 °)

Weather ElementTotal
Precipitation---
Cooling Degree Days11.1 (Base 65)
Growing Degree Days26.1 (Base 50)
Averaged from 22 records on August 27, 2014
WEATHER CONDITIONS BREAKOUT
WIND DIRECTION BREAKOUT
WEATHER BY HOUR - AUGUST 27, 2014
[ °C ]   °F
Local TimeTemperatureDewpointHumidityBarometerVisibilityWind DirectionWind SpeedGust SpeedPrecipitationEventsConditions
1:54 AM64.0 °F61.0 °F90 %30.05 in10.0 miSW (220°)4.6 mphClear
2:54 AM63.0 °F61.0 °F93 %30.04 in10.0 miSSW (210°)3.5 mphClear
3:54 AM63.0 °F61.0 °F93 %30.03 in10.0 miWest (260°)3.5 mphClear
4:54 AM62.1 °F60.1 °F93 %30.02 in10.0 miWSW (240°)4.6 mphClear
5:54 AM62.1 °F60.1 °F93 %30.03 in10.0 miSSW (210°)5.8 mph0.00 inClear
6:54 AM63.0 °F61.0 °F93 %30.04 in8.0 miSSW (210°)5.8 mphClear
7:54 AM66.9 °F63.0 °F87 %30.04 in10.0 miSSW (200°)5.8 mphMostly Cloudy
8:54 AM70.0 °F63.0 °F78 %30.03 in10.0 miSSW (210°)8.1 mphClear
9:54 AM73.9 °F64.0 °F71 %30.02 in10.0 miSW (230°)8.1 mphMostly Cloudy
11:54 AM84.9 °F66.0 °F53 %29.98 in10.0 miSW (220°)6.9 mphClear
12:54 PM88.0 °F66.9 °F49 %29.95 in10.0 miSouth (190°)8.1 mphClear
1:54 PM90.0 °F68.0 °F48 %29.92 in10.0 miSSW (200°)12.7 mph18.4 mphClear
2:54 PM90.0 °F68.0 °F48 %29.89 in10.0 miWest (260°)8.1 mphPartly Cloudy
3:54 PM89.1 °F68.0 °F50 %29.87 in10.0 miSW (230°)10.4 mphMostly Cloudy
4:54 PM88.0 °F68.0 °F51 %29.86 in10.0 miWSW (240°)6.9 mphPartly Cloudy
5:54 PM86.0 °F69.1 °F57 %29.87 in10.0 miSW (220°)11.5 mphScattered Clouds
6:54 PM87.1 °F68.0 °F53 %29.87 in10.0 miNNW (340°)9.2 mphScattered Clouds
7:54 PM81.0 °F68.0 °F65 %29.90 in10.0 miENE (70°)6.9 mphMostly Cloudy
8:54 PM77.0 °F69.1 °F76 %29.92 in10.0 miNNE (30°)4.6 mphMostly Cloudy
9:54 PM73.9 °F69.1 °F85 %29.91 in10.0 miCalmClear
10:54 PM71.1 °F68.0 °F90 %29.90 in9.0 miCalmScattered Clouds
11:54 PM73.0 °F68.0 °F84 %29.90 in8.0 miNW (310°)6.9 mphScattered Clouds
Hourly data recorded from KMGJ, located miles away from Wurtsboro, New York







STORIES FROM OUR PARTNERS